This is the latest recevied weather packets stored in our database for station/object KE5KUL-13. If no packets are shown the sender has not sent any weather packets the latest 10 day(s).
| Time | Temp. | Humidity | Pressure | Rain* | Wind** | Luminosity | Snow |
|---|---|---|---|---|---|---|---|
| 1777290618 | 12.22° C | 29% | 1009.6 hPa | 0 mm | - | - | - |
| 1777290018 | 12.22° C | 28% | 1009.7 hPa | 0 mm | - | - | - |
| 1777289418 | 12.78° C | 28% | 1009.7 hPa | 0 mm | - | - | - |
| 1777288218 | 12.78° C | 27% | 1009.4 hPa | 0 mm | - | - | - |
| 1777287618 | 12.78° C | 27% | 1009.3 hPa | 0 mm | - | - | - |
| 1777287018 | 12.78° C | 27% | 1009.3 hPa | 0 mm | - | - | - |
| 1777286417 | 12.78° C | 26% | 1009.2 hPa | 0 mm | - | - | - |
| 1777285818 | 13.33° C | 26% | 1009.3 hPa | 0 mm | - | - | - |
| 1777285218 | 13.33° C | 25% | 1009 hPa | 0 mm | - | - | - |
| 1777284618 | 13.89° C | 25% | 1009.1 hPa | 0 mm | - | - | - |
| 1777282218 | 15° C | 22% | 1009.2 hPa | 0 mm | - | - | - |
| 1777281617 | 15.56° C | 21% | 1009.2 hPa | 0 mm | - | - | - |
| 1777281017 | 16.11° C | 20% | 1009.2 hPa | 0 mm | - | - | - |
| 1777279818 | 17.22° C | 19% | 1009.1 hPa | 0 mm | - | - | - |
| 1777279217 | 17.22° C | 18% | 1008.7 hPa | 0 mm | - | - | - |
| 1777278617 | 17.78° C | 18% | 1008.9 hPa | 0 mm | - | - | - |
| 1777278017 | 18.33° C | 18% | 1008.8 hPa | 0 mm | - | - | - |
| 1777277417 | 18.33° C | 18% | 1008.7 hPa | 0 mm | - | - | - |
| 1777276817 | 18.89° C | 17% | 1008.5 hPa | 0 mm | - | - | - |
| 1777276217 | 18.89° C | 17% | 1008.7 hPa | 0 mm | - | - | - |
| 1777275617 | 19.44° C | 17% | 1008.8 hPa | 0 mm | - | - | - |
| 1777275017 | 20° C | 17% | 1008.8 hPa | 0 mm | - | - | - |
| 1777274417 | 20° C | 17% | 1008.7 hPa | 0 mm | - | - | - |
| 1777273817 | 20.56° C | 16% | 1008.5 hPa | 0 mm | - | - | - |
| 1777273217 | 21.11° C | 16% | 1008.3 hPa | 0 mm | - | - | - |
* Rain latest hour (hover to see other rain measurements)
** Current wind speed in m/s (hover to see current wind gust speed)